This is the latest recevied weather packets stored in our database for station/object KY4GW. If no packets are shown the sender has not sent any weather packets the latest 10 day(s).
| Time | Temp. | Humidity | Pressure | Rain* | Wind** | Luminosity | Snow |
|---|---|---|---|---|---|---|---|
| 1777748163 | 12.78° C | 51% | 1020.1 hPa | 0 mm | - | 295 W/m² | - |
| 1777747860 | 12.22° C | 49% | 1020.1 hPa | 0 mm | - | 380 W/m² | - |
| 1777747555 | 12.22° C | 47% | 1020.1 hPa | 0 mm | - | 487 W/m² | - |
| 1777747246 | 12.22° C | 47% | 1020.1 hPa | 0 mm | - | 336 W/m² | - |
| 1777746942 | 12.22° C | 47% | 1020.1 hPa | 0 mm | - | 238 W/m² | - |
| 1777746639 | 12.22° C | 51% | 1020.1 hPa | 0 mm | - | 161 W/m² | - |
| 1777746333 | 12.22° C | 49% | 1020.1 hPa | 0 mm | - | 159 W/m² | - |
| 1777746030 | 12.22° C | 53% | 1020.1 hPa | 0 mm | - | 212 W/m² | - |
| 1777745728 | 12.78° C | 47% | 1020.1 hPa | 0 mm | - | 300 W/m² | - |
| 1777745427 | 12.22° C | 50% | 1020.1 hPa | 0 mm | - | 368 W/m² | - |
| 1777745123 | 12.22° C | 54% | 1020.1 hPa | 0 mm | - | 335 W/m² | - |
| 1777744820 | 11.67° C | 48% | 1020.1 hPa | 0 mm | - | 244 W/m² | - |
| 1777744514 | 12.22° C | 48% | 1020.1 hPa | 0 mm | - | 200 W/m² | - |
| 1777742392 | 12.22° C | 47% | 1020.4 hPa | 0 mm | - | 244 W/m² | - |
| 1777741482 | 11.67° C | 48% | 1020.4 hPa | 0 mm | - | 117 W/m² | - |
| 1777741178 | 12.78° C | 51% | 1020.4 hPa | 0 mm | - | 297 W/m² | - |
| 1777740876 | 12.78° C | 51% | 1020.4 hPa | 0 mm | - | 297 W/m² | - |
| 1777740572 | 12.22° C | 52% | 1020.4 hPa | 0 mm | - | 687 W/m² | - |
| 1777740269 | 11.67° C | 48% | 1020.7 hPa | 0 mm | - | 637 W/m² | - |
| 1777739661 | 11.67° C | 48% | 1020.7 hPa | 0 mm | - | 192 W/m² | - |
| 1777739360 | 11.67° C | 50% | 1020.7 hPa | 0 mm | - | 213 W/m² | - |
| 1777739056 | 11.67° C | 49% | 1020.7 hPa | 0 mm | - | 326 W/m² | - |
| 1777738753 | 11.67° C | 53% | 1020.7 hPa | 0 mm | - | 282 W/m² | - |
| 1777738147 | 11.67° C | 55% | 1020.7 hPa | 0 mm | - | 350 W/m² | - |
| 1777737845 | 12.22° C | 49% | 1020.7 hPa | 0 mm | - | 251 W/m² | - |
* Rain latest hour (hover to see other rain measurements)
** Current wind speed in m/s (hover to see current wind gust speed)